• en France
  • Liste des pays
  • À 7 jours
  • Température de l'eau
  • Carte satellitaire
  • Carte météo
  • Widgets météo
  • user-avatar
    Se connecter

    Météo par heure à Heredia

    Ce jour, 18 Août, Samedi

    Heure Température Précipitation Vent Pression Humidité
    00:00 +19°C° 0 mm 1 m/s 664 mmHg 85%
    01:00 +19°C° 0 mm 1 m/s 664 mmHg 85%
    02:00 +19°C° 0 mm 1 m/s 663 mmHg 84%
    03:00 +19°C° 0 mm 1 m/s 663 mmHg 83%
    04:00 +19°C° 0 mm 1 m/s 663 mmHg 83%
    05:00 +19°C° 0 mm 1 m/s 663 mmHg 83%
    06:00 +19°C° 0 mm 1 m/s 663 mmHg 83%
    07:00 +21°C° 0 mm 1 m/s 664 mmHg 76%
    08:00 +23°C° 0 mm 1 m/s 665 mmHg 69%
    09:00 +26°C° 0 mm 1 m/s 666 mmHg 62%
    10:00 +26°C° 0 mm 2 m/s 666 mmHg 60%
    11:00 +27°C° 0 mm 2 m/s 666 mmHg 58%
    12:00 +28°C° 0 mm 2 m/s 665 mmHg 56%
    13:00 +27°C° 0,2 mm 2 m/s 665 mmHg 58%
    14:00 +27°C° 0,2 mm 2 m/s 664 mmHg 60%
    15:00 +27°C° 0,2 mm 2 m/s 664 mmHg 62%
    16:00 +25°C° 0,1 mm 2 m/s 663 mmHg 70%
    17:00 +23°C° 0,1 mm 1 m/s 663 mmHg 78%
    18:00 +22°C° 0,1 mm 1 m/s 662 mmHg 86%
    19:00 +21°C° 0 mm 1 m/s 663 mmHg 88%
    20:00 +21°C° 0 mm 1 m/s 663 mmHg 90%
    21:00 +18°C° 0 mm 0 m/s 663 mmHg 91%
    22:00 +20°C° 0 mm 1 m/s 663 mmHg 89%
    23:00 +19°C° 0 mm 1 m/s 663 mmHg 87%

    Demain, 19 Août, Dimanche

    Heure Température Précipitation Vent Pression Humidité
    00:00 +19°C° 0 mm 1 m/s 663 mmHg 85%
    01:00 +19°C° 0 mm 1 m/s 662 mmHg 83%
    02:00 +18°C° 0 mm 1 m/s 662 mmHg 80%
    03:00 +18°C° 0 mm 1 m/s 661 mmHg 78%
    04:00 +18°C° 0 mm 1 m/s 662 mmHg 78%
    05:00 +18°C° 0 mm 1 m/s 662 mmHg 78%
    06:00 +18°C° 0 mm 1 m/s 662 mmHg 77%
    07:00 +21°C° 0 mm 1 m/s 663 mmHg 71%
    08:00 +23°C° 0 mm 1 m/s 664 mmHg 64%
    09:00 +26°C° 0 mm 1 m/s 665 mmHg 57%
    10:00 +27°C° 0,1 mm 1 m/s 665 mmHg 58%
    11:00 +27°C° 0,1 mm 2 m/s 665 mmHg 58%
    12:00 +27°C° 0,1 mm 2 m/s 665 mmHg 59%
    13:00 +26°C° 1,2 mm 2 m/s 664 mmHg 64%
    14:00 +26°C° 1,2 mm 2 m/s 663 mmHg 70%
    15:00 +25°C° 1,2 mm 2 m/s 662 mmHg 75%
    16:00 +23°C° 1,1 mm 1 m/s 662 mmHg 80%
    17:00 +22°C° 1,1 mm 1 m/s 662 mmHg 86%
    18:00 +19°C° 1,1 mm 0 m/s 662 mmHg 91%
    19:00 +19°C° 0,2 mm 0 m/s 662 mmHg 91%
    20:00 +19°C° 0,2 mm 0 m/s 663 mmHg 91%
    21:00 +18°C° 0,2 mm 0 m/s 664 mmHg 92%
    22:00 +18°C° 0 mm 0 m/s 663 mmHg 91%
    23:00 +18°C° 0 mm 0 m/s 663 mmHg 90%

    Après-demain, 20 Août, Lundi

    Heure Température Précipitation Vent Pression Humidité
    00:00 +18°C° 0 mm 0 m/s 663 mmHg 89%
    01:00 +18°C° 0 mm 0 m/s 662 mmHg 88%
    02:00 +17°C° 0 mm 0 m/s 662 mmHg 87%
    03:00 +19°C° 0 mm 1 m/s 662 mmHg 86%
    04:00 +19°C° 0,1 mm 1 m/s 662 mmHg 85%
    05:00 +19°C° 0,1 mm 1 m/s 662 mmHg 85%
    06:00 +19°C° 0,1 mm 1 m/s 662 mmHg 84%
    07:00 +21°C° 0,2 mm 1 m/s 663 mmHg 81%
    08:00 +22°C° 0,2 mm 1 m/s 664 mmHg 77%
    09:00 +24°C° 0,2 mm 1 m/s 665 mmHg 74%
    10:00 +25°C° 0,2 mm 1 m/s 665 mmHg 70%
    11:00 +26°C° 0,2 mm 1 m/s 665 mmHg 67%
    12:00 +27°C° 0,2 mm 2 m/s 665 mmHg 63%
    13:00 +26°C° 1,1 mm 2 m/s 664 mmHg 68%
    14:00 +25°C° 1,1 mm 2 m/s 663 mmHg 73%
    15:00 +24°C° 1,1 mm 1 m/s 662 mmHg 78%
    16:00 +23°C° 1,5 mm 1 m/s 662 mmHg 83%
    17:00 +22°C° 1,5 mm 1 m/s 662 mmHg 87%
    18:00 +21°C° 1,5 mm 1 m/s 662 mmHg 91%
    19:00 +21°C° 0,5 mm 1 m/s 663 mmHg 91%
    20:00 +20°C° 0,5 mm 1 m/s 663 mmHg 90%
    21:00 +20°C° 0,5 mm 1 m/s 664 mmHg 90%
    22:00 +20°C° 0,3 mm 1 m/s 663 mmHg 90%
    23:00 +20°C° 0,3 mm 1 m/s 663 mmHg 89%

    21 Août, Mardi

    Heure Température Précipitation Vent Pression Humidité
    00:00 +19°C° 0,3 mm 1 m/s 663 mmHg 89%
    01:00 +19°C° 0,2 mm 1 m/s 663 mmHg 89%
    02:00 +19°C° 0,2 mm 1 m/s 662 mmHg 89%
    03:00 +19°C° 0,2 mm 1 m/s 662 mmHg 88%
    04:00 +19°C° 0,2 mm 1 m/s 662 mmHg 88%
    05:00 +19°C° 0,2 mm 1 m/s 662 mmHg 88%
    06:00 +19°C° 0,2 mm 1 m/s 663 mmHg 87%
    07:00 +21°C° 0 mm 1 m/s 663 mmHg 82%
    08:00 +23°C° 0 mm 1 m/s 664 mmHg 76%
    09:00 +24°C° 0 mm 1 m/s 665 mmHg 71%
    10:00 +25°C° 0,1 mm 1 m/s 665 mmHg 67%
    11:00 +26°C° 0,1 mm 2 m/s 665 mmHg 63%
    12:00 +27°C° 0,1 mm 2 m/s 665 mmHg 59%
    13:00 +27°C° 0,7 mm 2 m/s 664 mmHg 64%
    14:00 +26°C° 0,7 mm 2 m/s 664 mmHg 68%
    15:00 +25°C° 0,7 mm 2 m/s 663 mmHg 73%
    16:00 +24°C° 0,2 mm 1 m/s 663 mmHg 79%
    17:00 +23°C° 0,2 mm 1 m/s 663 mmHg 85%
    18:00 +21°C° 0,2 mm 1 m/s 663 mmHg 91%
    19:00 +21°C° 0 mm 1 m/s 663 mmHg 91%
    20:00 +21°C° 0 mm 1 m/s 663 mmHg 92%
    21:00 +20°C° 0 mm 1 m/s 664 mmHg 92%
    22:00 +20°C° 0 mm 1 m/s 664 mmHg 90%
    23:00 +20°C° 0 mm 1 m/s 663 mmHg 89%

    22 Août, Mercredi

    Heure Température Précipitation Vent Pression Humidité
    00:00 +20°C° 0 mm 1 m/s 663 mmHg 88%
    01:00 +20°C° 0 mm 1 m/s 663 mmHg 87%
    02:00 +20°C° 0 mm 1 m/s 662 mmHg 86%
    03:00 +19°C° 0 mm 1 m/s 662 mmHg 86%
    04:00 +19°C° 0 mm 1 m/s 662 mmHg 86%
    05:00 +20°C° 0 mm 1 m/s 662 mmHg 86%
    06:00 +20°C° 0 mm 1 m/s 663 mmHg 85%
    07:00 +22°C° 0 mm 1 m/s 663 mmHg 79%
    08:00 +24°C° 0 mm 1 m/s 664 mmHg 73%
    09:00 +26°C° 0 mm 1 m/s 665 mmHg 66%
    10:00 +26°C° 0,6 mm 2 m/s 665 mmHg 67%
    11:00 +26°C° 0,6 mm 2 m/s 665 mmHg 68%
    12:00 +27°C° 0,6 mm 2 m/s 664 mmHg 68%
    13:00 +25°C° 1,9 mm 2 m/s 664 mmHg 73%
    14:00 +24°C° 1,9 mm 2 m/s 663 mmHg 77%
    15:00 +23°C° 1,9 mm 1 m/s 662 mmHg 82%
    16:00 +23°C° 0,4 mm 1 m/s 662 mmHg 84%
    17:00 +22°C° 0,4 mm 1 m/s 663 mmHg 87%
    18:00 +19°C° 0,4 mm 0 m/s 663 mmHg 90%
    19:00 +19°C° 0,1 mm 0 m/s 663 mmHg 90%
    20:00 +18°C° 0,1 mm 0 m/s 663 mmHg 89%
    21:00 +20°C° 0,1 mm 1 m/s 664 mmHg 89%
    22:00 +20°C° 0 mm 1 m/s 663 mmHg 88%
    23:00 +19°C° 0 mm 1 m/s 663 mmHg 87%

    23 Août, Jeudi

    Heure Température Précipitation Vent Pression Humidité
    00:00 +19°C° 0 mm 1 m/s 663 mmHg 86%
    01:00 +19°C° 0 mm 1 m/s 662 mmHg 86%
    02:00 +19°C° 0 mm 1 m/s 662 mmHg 85%
    03:00 +19°C° 0 mm 1 m/s 662 mmHg 85%
    04:00 +19°C° 0 mm 1 m/s 662 mmHg 85%
    05:00 +19°C° 0 mm 1 m/s 663 mmHg 85%
    06:00 +19°C° 0 mm 1 m/s 663 mmHg 85%
    07:00 +21°C° 0,1 mm 1 m/s 664 mmHg 79%
    08:00 +23°C° 0,1 mm 1 m/s 664 mmHg 74%
    09:00 +24°C° 0,1 mm 1 m/s 665 mmHg 69%
    10:00 +24°C° 0,5 mm 1 m/s 665 mmHg 69%
    11:00 +25°C° 0,5 mm 1 m/s 665 mmHg 70%
    12:00 +25°C° 0,5 mm 2 m/s 664 mmHg 71%
    13:00 +24°C° 1,1 mm 1 m/s 664 mmHg 74%
    14:00 +24°C° 1,1 mm 1 m/s 663 mmHg 78%
    15:00 +23°C° 1,1 mm 1 m/s 662 mmHg 81%
    16:00 +22°C° 0,6 mm 1 m/s 662 mmHg 84%
    17:00 +21°C° 0,6 mm 1 m/s 662 mmHg 88%
    18:00 +19°C° 0,6 mm 0 m/s 663 mmHg 91%
    19:00 +20°C° 0,4 mm 1 m/s 663 mmHg 91%
    20:00 +20°C° 0,4 mm 1 m/s 663 mmHg 90%
    21:00 +20°C° 0,4 mm 1 m/s 663 mmHg 90%
    22:00 +20°C° 0,4 mm 1 m/s 663 mmHg 89%
    23:00 +19°C° 0,4 mm 1 m/s 663 mmHg 88%
    Voir plus